AirNav   Duncan Aviation - Near you to keep you flying
 
 1602 users online  

74S Anacortes Airport
Anacortes, Washington, USA

GOING TO ANACORTES?


FAA INFORMATION EFFECTIVE 16 JUNE 2022

Location

FAA Identifier: 74S
Lat/Long: 48-29-54.6250N 122-39-44.8850W
48-29.910417N 122-39.748083W
48.4985069,-122.6624681
(estimated)
Elevation: 246.1 ft. / 75.0 m (surveyed)
Variation: 21E (1985)
From city: 2 miles W of ANACORTES, WA
Time zone: UTC -7 (UTC -8 during Standard Time)
Zip code: 98221

Airport Operations

Airport use: Open to the public
Activation date: 12/1970
Control tower: no
ARTCC: SEATTLE CENTER
FSS: SEATTLE FLIGHT SERVICE STATION
NOTAMs facility: SEA (NOTAM-D service available)
Attendance: UNATNDD
Wind indicator: yes
Segmented circle: yes
Lights: ACTVT MIRL & REILS RY 18/36 - CTAF.
Beacon: white-green (lighted land airport)
Operates sunset to sunrise.
International operations: customs landing rights airport

Airport Communications

CTAF: 128.25
WX ASOS at NUW (9 nm S): PHONE 360-257-8813
WX AWOS-3 at BVS (10 nm E): 121.125 (360-757-7767)
WX ASOS at FHR (14 nm W): 135.675 (360-378-8491)
WX AWOS-3 at OKH (15 nm S): 132.775 (360-675-8431)
WX AWOS-3 at ORS (16 nm NW): 135.425 (360-376-6045)
WX ASOS at BLI (18 nm N): PHONE 360-671-8688

Nearby radio navigation aids

VOR radial/distance  VOR name  Freq  Var
CVVr350/15.4PENN COVE VOR/DME117.2019E
HUHr167/27.0WHATCOM VORTAC113.0020E
YYJr096/35.4VICTORIA VOR/DME113.7017E
PAEr316/38.0PAINE VOR/DME110.6020E
YVRr134/39.7VANCOUVER VOR/DME115.9017E

 
NDB name  Hdg/Dist  Freq  Var  ID
SKAGIT/BAY VIEW264/9.924016EBVS -... ...- ...
FRIDAY HARBOR076/14.428417EFHR ..-. .... .-.
EDIZ HOOK037/36.633817ENOW -. --- .--

Airport Services

Fuel available: 100 JET-A
Oil available: AUTOMATED UNICOM; 122.9. ADZY ALSO AVBL AT 617-262-3825.
Parking: tiedowns
Airframe service: NONE
Powerplant service: NONE
Bottled oxygen: NONE
Bulk oxygen: NONE

Runway Information

Runway 18/36

Dimensions: 3018 x 60 ft. / 920 x 18 m
Surface: asphalt/grooved, in good condition
Weight bearing capacity: 
Single wheel: 12.5
Runway edge lights: medium intensity
RUNWAY 18  RUNWAY 36
Latitude: 48-30.144018N48-29.677703N
Longitude: 122-39.620133W122-39.876007W
Elevation: 237.7 ft.246.1 ft.
Traffic pattern: rightleft
Runway heading: 179 magnetic, 200 true359 magnetic, 020 true
Markings: basic, in good conditionbasic, in good condition
Visual slope indicator: 4-light PAPI on right (3.00 degrees glide path)4-light PAPI on left (3.00 degrees glide path)
Runway end identifier lights: yesyes
Touchdown point: yes, no lightsyes, no lights
Obstructions: 22 ft. tree, 767 ft. from runway, 25:1 slope to clear20 ft. trees, 1158 ft. from runway, 46:1 slope to clear

Airport Ownership and Management from official FAA records

Ownership: Publicly-owned
Owner: PORT OF ANACORTES
100 COMMERCIAL AVENUE
ANACORTES, WA 98221
Phone 360-293-3134
Manager: JOHN DUMAS
100 COMMERCIAL AVENUE
ANACORTES, WA 98221
Phone 360-293-3134

Airport Operational Statistics

Aircraft based on the field: 26
Single engine airplanes: 26
    
Aircraft operations: avg 25/day *
44% transient general aviation
39% local general aviation
17% air taxi
* for 12-month period ending 31 December 2019

Additional Remarks

MILITARY ARRIVAL CORRIDOR N & W OF ARPT.
RWY 36 PREFERRED CALM WIND RY.
NOISE ABATEMENT PROCEDURES IN EFFECT; CTC AMGR 360-293-3134.
NO TOUCH & GO LDGS.
FOR CD CTC WHIDBEY APCH AT 360-257-3310.

Instrument Procedures

There are no published instrument procedures at 74S.

Some nearby airports with instrument procedures:

KNUW - Whidbey Island Naval Air Station (Ault Field) (9 nm S)
KBVS - Skagit Regional Airport (10 nm E)
KFHR - Friday Harbor Airport (14 nm W)
KOKH - AJ Eisenberg Airport (15 nm S)
KORS - Orcas Island Airport (16 nm NW)
KBLI - Bellingham International Airport (18 nm N)
 
Loc | Ops | Rwys | IFR | FBO | Links
Com | Nav | Svcs | Stats | Notes
Area around 74S (Anacortes Airport)
 
Road maps at: MapQuest Bing Google
 
Aerial photo
WARNING: Photo may not be current or correct
Aerial photo of 74S (Anacortes Airport)
Photo by S. Paulay
Photo taken 04-Jul-2007

Do you have a better or more recent aerial photo of Anacortes Airport that you would like to share? If so, please send us your photo.

 
Sectional chart

 
Airport distance calculator
Flying to Anacortes Airport? Find the distance to fly.

From to 74S

Sunrise and sunset
Times for 07-Jul-2022
 Local
(UTC-7)
 Zulu
(UTC)
Morning civil twilight04:3711:37
Sunrise05:1812:18
Sunset21:1304:13
Evening civil twilight21:5404:54

Current date and time
Zulu (UTC)  07-Jul-2022 17:39:05
Local (UTC-7)  07-Jul-2022 10:39:05
 
METAR
KNUW 
9nm S 
071656Z 25008KT 10SM SCT025 BKN035 BKN045 16/12 A3009 RMK SLP187 T01610117
KBVS 
10nm E 
071715Z AUTO 20003KT 9SM OVC023 18/13 A3005 RMK A01
KFHR 
15nm W 
071653Z AUTO 14005KT 10SM OVC024 14/12 A3005 RMK AO2 SLP177 T01440122
KORS 
15nm NW 
071535Z AUTO 17005KT 10SM OVC065 15/15 A3001 RMK AO2
KBLI 
19nm N 
071653Z 19007KT 10SM OVC034 17/14 A3003 RMK AO2 SLP176 T01720144
TAF
KNUW 
9nm S 
0715/0815 VRB05KT 9999 VCSH BKN030 BKN050 BKN100 640904 540305 QNH3003INS TEMPO 0715/0721 24007KT 9999 -SHRA BKN025 OVC035 FM072100 VRB06KT 9999 SCT020 SCT080 BKN250 600000 500000 QNH3005INS FM081100 24007KT 9000 BR BCFG SCT005 BKN025 QNH3009INS TEMPO 0811/0815 2400 BR BKN004 T17/0723Z T12/0813Z FS30028
KBLI 
19nm N 
071127Z 0712/0812 19005KT P6SM SCT035 BKN045 OVC070 TEMPO 0712/0715 -SHRA BKN035 OVC045 FM071500 17005KT P6SM OVC020 FM072000 18007KT P6SM OVC050 FM072200 18009KT P6SM SCT050 BKN100
NOTAMs
Click for the latest NOTAMs
NOTAMs are issued by the DoD/FAA and will open in a separate window not controlled by AirNav.

 

 
 

FBO, Fuel Providers, and Aircraft Ground Support

  
 Business Name 
 
 Contact 
 
 Services / Description 
 
Fuel Prices
 
Comments
  
 Port of Anacortes
360-293-3134
[web site]
[email]
Airport management, Aviation fuel, Aircraft parking (ramp or tiedown), Aerial tours / aerial sightseeing, Aircraft charters, Scheduled airline carrier

More info about Port of Anacortes
Phillips 66
100LL Jet A
SS $7.59 $5.79 
 Updated 30-Jun-2022
 
   2 read write
SS=Self service
Update Fuel Prices
 

Would you like to see your business listed on this page?

 If your business provides an interesting product or service to pilots, flight crews, aircraft, or users of the Anacortes Airport, you should consider listing it here.  To start the listing process, click on the button below
 
Add a business
 

Other Pages about Anacortes Airport

www.portofanacortes.com/airport
 
Update a link
 
Copyright © AirNav, LLC. All rights reserved. Privacy Policy  Contact